Regional Weather Roundup
Issued by NWS

Home | Current Version | Previous Version | Graphics & Text | Print | Product List | Glossary On
Versions: 1 2 3 4 5 6 7 8 9 10 11 12 13 14 15 16 17 18 19 20 21 22 23 24 25 26 27 28 29 30 31 32 33 34 35 36 37 38 39 40 41 42 43 44 45 46 47 48 49 50
000
ASUS43 KFSD 261002
RWRSD

WEATHER ROUNDUP FOR SOUTH DAKOTA
NATIONAL WEATHER SERVICE SIOUX FALLS SD
500 AM CDT WED APR 26 2017

NOTE: "FAIR" INDICATES FEW OR NO CLOUDS BELOW 12,000 FEET WITH NO
SIGNIFICANT WEATHER AND/OR OBSTRUCTIONS TO VISIBILITY.


SDZ001>005-009-010-012>017-261100-
NORTHWEST AND NORTH CENTRAL SOUTH DAKOTA

CITY           SKY/WX    TMP DP  RH WIND       PRES   REMARKS
BUFFALO          N/A     31  25  78 NW13      29.80S WCI  21
FAITH            N/A     31  27  85 N15       29.84S WCI  20
MOBRIDGE       CLOUDY    34  23  64 N17G25    29.78F WCI  23
$$

SDZ012>016-024>037-041>051-057-063-072>074-261100-
SOUTHWEST AND SOUTH CENTRAL SOUTH DAKOTA

CITY           SKY/WX    TMP DP  RH WIND       PRES   REMARKS
RAPID CTY ARPT CLOUDY    28  24  85 NW17      29.85F WCI  16
PIERRE         CLOUDY    32  28  85 NW15      29.78F WCI  22
CUSTER         CLOUDY    22  19  89 SW3       29.76S
ELLSWORTH AFB  CLOUDY    28  27  97 NW16      29.84S WCI  16
PHILIP         CLOUDY    32  30  92 NW13      29.84S WCI  22
PINE RIDGE     CLOUDY    29  26  89 NW7       29.84S WCI  22
SPEARFISH      CLOUDY    25  23  93 W12       29.85F WCI  14
WINNER         CLOUDY    32  30  92 NW16G24   29.76F WCI  21
$$

SDZ004>011-016>023-039-040-261100-
NORTHEAST SOUTH DAKOTA

CITY           SKY/WX    TMP DP  RH WIND       PRES   REMARKS
ABERDEEN       LGT SNOW  30  26  85 N17       29.74F FOG     WCI  18
WATERTOWN      CLOUDY    30  28  92 N20       29.63F WCI  17
BROOKINGS      CLOUDY    32  31  96 N13       29.62R WCI  22
SISSETON         N/A     31  30  96 N20       29.68F WCI  19
$$

SDZ017-020-022-023-036>040-048>070-261100-
SOUTHEAST SOUTH DAKOTA

CITY           SKY/WX    TMP DP  RH WIND       PRES   REMARKS
SIOUX FALLS    CLOUDY    36  34  92 NW15      29.62R
HURON          CLOUDY    31  30  96 N20G25    29.70F WCI  19
CHAMBERLAIN    CLOUDY    33  32  94 W16G22    29.74F WCI  23
MITCHELL       CLOUDY    33  32  96 NW16G24   29.72R WCI  23
YANKTON        CLOUDY    34  28  80 NW21      29.68R WCI  22
$$

ABBREVIATIONS USED IN REMARKS
   TC - TEMPERATURE IN CELSIUS
  WCI - WIND CHILL INDEX
   HX - HEAT INDEX
  VSB - VISIBILITY




USA.gov is the U.S. government's official web portal to all federal, state and local government web resources and services.